Marshfield, WI

9:55 PM CST on February 12, 2016 (GMT -0600)
Marshfield Municipal

Weather History for KMFI - November, 2014

Change the Weather History Date:

Sunday, November 23, 2014

  Actual Average Record
Temperature  
Mean Temperature 44 °F -  
Max Temperature 48 °F 36 °F 57 °F (1931)
Min Temperature 41 °F 21 °F -8 °F (1950)
Degree Days  
Heating Degree Days 20    
Moisture  
Dew Point 44 °F    
Average Humidity 97    
Maximum Humidity 100    
Minimum Humidity 93    
Precipitation  
Precipitation 0.00 in - - ()
Sea Level Pressure  
Sea Level Pressure 29.46 in    
Wind  
Wind Speed 7 mph (SSE)    
Max Wind Speed 12 mph    
Max Gust Speed -    
Averages and records for this station are not official NWS values.
T = Trace of Precipitation, MM = Missing Value Source: NWS Daily Summary

Daily Weather History Graph

Daily Weather History Graph

Search for Another Location

Airport or City:

Trip Planner

Search our weather history database for the weather conditions in past years. The results will help you decide how hot, cold, wet, or windy it might be!

Date:

Astronomy

Nov. 23, 2014 Rise Set
Actual Time 7:07 AM CST 4:26 PM CST
Civil Twilight 6:35 AM CST 4:58 PM CST
Nautical Twilight 5:59 AM CST 5:34 PM CST
Astronomical Twilight 5:24 AM CST 6:09 PM CST
Moon 8:03 AM CST (11/23) 5:49 PM CST (11/23)
Length of Visible Light 10h 22m
Length of Day
9h 18m
New Moon, 2% of the Moon is Illuminated
Nov 23
New Moon
Nov 29
First Quarter
Dec 6
Full
Dec 14
Last Quarter
Dec 21
New

Hourly Weather History & Observations

Time (CST) Temp. Windchill Dew Point Humidity Pressure Visibility Wind Dir Wind Speed Gust Speed Precip Events Conditions
12:54 AM 41.0 °F 35.8 °F 39.9 °F 96% 29.65 in 0.2 mi SSE 8.1 mph - N/A Fog Fog
1:54 AM 42.1 °F 38.4 °F 41.0 °F 96% 29.63 in 0.2 mi South 5.8 mph - N/A Fog Fog
2:54 AM 42.1 °F 39.2 °F 42.1 °F 100% 29.62 in 0.2 mi South 4.6 mph - N/A Fog Fog
3:54 AM 45.0 °F 41.8 °F 44.1 °F 97% 29.60 in 0.2 mi South 5.8 mph - N/A Fog Fog
4:54 AM 46.0 °F 41.4 °F 45.0 °F 96% 29.59 in 0.2 mi South 9.2 mph - N/A Fog Fog
5:54 AM 46.0 °F 41.4 °F 46.0 °F 100% 29.59 in 0.5 mi South 9.2 mph - 0.00 in Fog , Rain Light Rain
6:54 AM 46.0 °F 42.5 °F 45.0 °F 96% 29.58 in 0.2 mi South 6.9 mph - 0.00 in Fog , Rain Light Rain
7:54 AM 46.0 °F 41.4 °F 44.1 °F 93% 29.58 in 0.2 mi South 9.2 mph - 0.00 in Fog , Rain Light Rain
8:54 AM 45.0 °F 41.2 °F 45.0 °F 100% 29.58 in 0.2 mi South 6.9 mph - 0.00 in Fog Fog
9:54 AM 46.0 °F 41.4 °F 46.0 °F 100% 29.56 in 0.2 mi South 9.2 mph - 0.00 in Fog Fog
10:54 AM 46.9 °F - 46.0 °F 97% 29.54 in 0.2 mi SSE 11.5 mph - N/A Fog Fog
11:54 AM 46.9 °F - 46.0 °F 97% 29.51 in 0.2 mi South 6.9 mph - N/A Fog Fog
12:54 PM 46.9 °F - 46.0 °F 97% 29.48 in 0.2 mi South 6.9 mph - 0.00 in Fog Fog
1:54 PM 48.0 °F - 46.9 °F 96% 29.44 in 0.2 mi South 4.6 mph - 0.00 in Fog Fog
2:54 PM 48.0 °F - 46.9 °F 96% 29.42 in 0.2 mi SSE 4.6 mph - 0.00 in Fog , Rain Light Rain
3:54 PM 46.9 °F - 46.0 °F 97% 29.41 in 0.2 mi South 4.6 mph - 0.00 in Fog , Rain Light Rain
4:54 PM 46.9 °F - 46.0 °F 97% 29.39 in 0.2 mi SSE 4.6 mph - 0.00 in Fog Fog
5:54 PM 46.0 °F 44.8 °F 45.0 °F 96% 29.37 in 0.2 mi ESE 3.5 mph - 0.00 in Fog , Rain Light Rain
6:54 PM 46.0 °F 43.9 °F 45.0 °F 96% 29.34 in 0.2 mi ESE 4.6 mph - 0.00 in Fog , Rain Light Rain
7:54 PM 45.0 °F 43.5 °F 44.1 °F 97% 29.30 in 0.2 mi East 3.5 mph - 0.00 in Fog Fog
8:54 PM 44.1 °F 40.8 °F 43.0 °F 96% 29.26 in 0.2 mi East 5.8 mph - 0.00 in Fog Fog
9:54 PM 44.1 °F 42.5 °F 43.0 °F 96% 29.23 in 0.2 mi East 3.5 mph - 0.00 in Fog , Rain Light Rain
10:54 PM 43.0 °F 41.3 °F 42.1 °F 97% 29.19 in 0.2 mi East 3.5 mph - 0.00 in Fog , Rain Light Rain
11:54 PM 43.0 °F 41.3 °F 42.1 °F 97% 29.16 in 0.2 mi ENE 3.5 mph - 0.00 in Fog Fog